Time,TemperatureF,DewpointF,PressureIn,WindDirection,WindDirectionDegrees,WindSpeedMPH,WindSpeedGustMPH,Humidity,HourlyPrecipIn,Conditions,Clouds,dailyrainin,SoftwareType,DateUTC
2013-03-01 00:02:00,53.2,43.7,30.40,WNW,291,0.0,0.0,70,0.00,,CLR,0.00,VWS V14.01,2013-03-01 08:02:00,
2013-03-01 00:07:00,54.4,44.5,30.40,WNW,291,0.0,1.0,69,0.00,,CLR,0.00,VWS V14.01,2013-03-01 08:07:00,
2013-03-01 00:12:00,54.9,44.5,30.40,WNW,291,0.0,1.0,68,0.00,,CLR,0.00,VWS V14.01,2013-03-01 08:12:00,
2013-03-01 00:17:00,54.6,44.3,30.40,WNW,291,0.0,1.0,68,0.00,,CLR,0.00,VWS V14.01,2013-03-01 08:17:00,
2013-03-01 00:22:00,54.5,44.2,30.40,WNW,291,0.0,1.0,68,0.00,,CLR,0.00,VWS V14.01,2013-03-01 08:22:00,
2013-03-01 00:27:00,54.2,44.3,30.40,WNW,291,0.0,1.0,69,0.00,,CLR,0.00,VWS V14.01,2013-03-01 08:27:00,
2013-03-01 00:32:00,53.8,44.3,30.40,WNW,291,0.0,0.0,70,0.00,,CLR,0.00,VWS V14.01,2013-03-01 08:32:00,
2013-03-01 00:37:00,53.0,43.9,30.41,WNW,290,0.0,1.0,71,0.00,,CLR,0.00,VWS V14.01,2013-03-01 08:37:00,
2013-03-01 00:42:00,52.5,43.8,30.41,WNW,291,0.0,1.0,72,0.00,,CLR,0.00,VWS V14.01,2013-03-01 08:42:00,
2013-03-01 00:47:00,52.0,44.0,30.41,WNW,291,0.0,1.0,74,0.00,,CLR,0.00,VWS V14.01,2013-03-01 08:47:00,
2013-03-01 00:52:00,51.7,43.7,30.40,WNW,290,0.0,1.0,74,0.00,,CLR,0.00,VWS V14.01,2013-03-01 08:52:00,
2013-03-01 00:57:00,51.7,44.0,30.41,WNW,291,0.0,1.0,75,0.00,,CLR,0.00,VWS V14.01,2013-03-01 08:57:00,
2013-03-01 01:02:00,51.6,44.0,30.41,WNW,290,0.0,0.0,75,0.00,,CLR,0.00,VWS V14.01,2013-03-01 09:02:00,
2013-03-01 01:07:00,51.1,43.1,30.41,WNW,290,0.0,0.0,74,0.00,,CLR,0.00,VWS V14.01,2013-03-01 09:07:00,
2013-03-01 01:12:00,50.6,43.3,30.41,WNW,289,0.0,0.0,76,0.00,,CLR,0.00,VWS V14.01,2013-03-01 09:12:00,
2013-03-01 01:17:00,50.2,43.3,30.41,WNW,290,0.0,0.0,77,0.00,,CLR,0.00,VWS V14.01,2013-03-01 09:17:00,
2013-03-01 01:22:00,49.9,43.3,30.41,WNW,289,0.0,0.0,78,0.00,,CLR,0.00,VWS V14.01,2013-03-01 09:22:00,
2013-03-01 01:27:00,49.8,43.6,30.41,WNW,289,0.0,0.0,79,0.00,,CLR,0.00,VWS V14.01,2013-03-01 09:27:00,
2013-03-01 01:32:00,49.8,43.6,30.41,WNW,290,0.0,0.0,79,0.00,,CLR,0.00,VWS V14.01,2013-03-01 09:32:00,
2013-03-01 01:37:00,49.8,43.9,30.41,WNW,290,0.0,0.0,80,0.00,,CLR,0.00,VWS V14.01,2013-03-01 09:37:00,
2013-03-01 01:42:00,50.0,43.8,30.41,WNW,290,0.0,0.0,79,0.00,,CLR,0.00,VWS V14.01,2013-03-01 09:42:00,
2013-03-01 01:47:00,49.8,43.6,30.41,WNW,290,0.0,0.0,79,0.00,,CLR,0.00,VWS V14.01,2013-03-01 09:47:00,
2013-03-01 01:52:00,49.6,43.7,30.41,WNW,290,0.0,0.0,80,0.00,,CLR,0.00,VWS V14.01,2013-03-01 09:52:00,
2013-03-01 01:57:00,49.7,44.1,30.41,WNW,290,1.0,1.0,81,0.00,,CLR,0.00,VWS V14.01,2013-03-01 09:57:00,
2013-03-01 02:02:00,50.2,44.3,30.41,WNW,290,0.0,0.0,80,0.00,,CLR,0.00,VWS V14.01,2013-03-01 10:02:00,
2013-03-01 02:07:00,50.6,44.3,30.41,WNW,289,0.0,1.0,79,0.00,,CLR,0.00,VWS V14.01,2013-03-01 10:07:00,
2013-03-01 02:13:00,50.8,44.2,30.41,WNW,289,0.0,1.0,78,0.00,,CLR,0.00,VWS V14.01,2013-03-01 10:13:00,
2013-03-01 02:18:00,51.1,44.5,30.41,WNW,289,0.0,1.0,78,0.00,,CLR,0.00,VWS V14.01,2013-03-01 10:18:00,
2013-03-01 02:23:00,50.9,44.0,30.40,WNW,290,0.0,1.0,77,0.00,,CLR,0.00,VWS V14.01,2013-03-01 10:23:00,
2013-03-01 02:28:00,50.3,43.7,30.40,WNW,289,0.0,1.0,78,0.00,,CLR,0.00,VWS V14.01,2013-03-01 10:28:00,
2013-03-01 02:33:00,50.1,43.8,30.40,WNW,289,0.0,0.0,79,0.00,,CLR,0.00,VWS V14.01,2013-03-01 10:33:00,
2013-03-01 02:38:00,49.8,43.6,30.40,WNW,290,0.0,0.0,79,0.00,,CLR,0.00,VWS V14.01,2013-03-01 10:38:00,
2013-03-01 02:43:00,49.5,43.6,30.40,WNW,289,0.0,0.0,80,0.00,,CLR,0.00,VWS V14.01,2013-03-01 10:43:00,
2013-03-01 02:48:00,49.1,43.5,30.40,WNW,290,0.0,0.0,81,0.00,,CLR,0.00,VWS V14.01,2013-03-01 10:48:00,
2013-03-01 02:53:00,48.7,43.5,30.40,WNW,289,0.0,0.0,82,0.00,,CLR,0.00,VWS V14.01,2013-03-01 10:53:00,
2013-03-01 02:58:00,48.9,44.0,30.40,WNW,290,0.0,0.0,83,0.00,,CLR,0.00,VWS V14.01,2013-03-01 10:58:00,
2013-03-01 03:03:00,49.6,44.3,30.40,WNW,290,0.0,0.0,82,0.00,,CLR,0.00,VWS V14.01,2013-03-01 11:03:00,
2013-03-01 03:08:00,50.3,44.7,30.39,WNW,290,1.0,1.0,81,0.00,,CLR,0.00,VWS V14.01,2013-03-01 11:08:00,
2013-03-01 03:13:00,51.3,45.0,30.39,West,280,0.0,1.0,79,0.00,,CLR,0.00,VWS V14.01,2013-03-01 11:13:00,
2013-03-01 03:18:00,51.9,44.6,30.39,West,280,0.0,1.0,76,0.00,,CLR,0.00,VWS V14.01,2013-03-01 11:18:00,
2013-03-01 03:23:00,51.4,44.1,30.39,West,278,0.0,1.0,76,0.00,,CLR,0.00,VWS V14.01,2013-03-01 11:23:00,
2013-03-01 03:28:00,50.6,44.0,30.39,West,280,0.0,1.0,78,0.00,,CLR,0.00,VWS V14.01,2013-03-01 11:28:00,
2013-03-01 03:33:00,49.9,43.7,30.39,West,280,0.0,0.0,79,0.00,,CLR,0.00,VWS V14.01,2013-03-01 11:33:00,
2013-03-01 03:38:00,49.5,44.2,30.39,West,280,0.0,0.0,82,0.00,,CLR,0.00,VWS V14.01,2013-03-01 11:38:00,
2013-03-01 03:43:00,49.5,43.9,30.39,West,280,0.0,0.0,81,0.00,,CLR,0.00,VWS V14.01,2013-03-01 11:43:00,
2013-03-01 03:48:00,49.3,44.0,30.39,West,280,0.0,0.0,82,0.00,,CLR,0.00,VWS V14.01,2013-03-01 11:48:00,
2013-03-01 03:53:00,49.8,44.5,30.39,West,280,0.0,1.0,82,0.00,,CLR,0.00,VWS V14.01,2013-03-01 11:53:00,
2013-03-01 03:58:00,51.0,44.7,30.39,West,280,0.0,1.0,79,0.00,,CLR,0.00,VWS V14.01,2013-03-01 11:58:00,
2013-03-01 04:03:00,52.0,45.0,30.39,West,278,0.0,1.0,77,0.00,,CLR,0.00,VWS V14.01,2013-03-01 12:03:00,
2013-03-01 04:08:00,52.7,44.7,30.39,West,278,0.0,1.0,74,0.00,,CLR,0.00,VWS V14.01,2013-03-01 12:08:00,
2013-03-01 04:13:00,52.8,44.8,30.39,West,278,0.0,1.0,74,0.00,,CLR,0.00,VWS V14.01,2013-03-01 12:13:00,
2013-03-01 04:18:00,52.2,44.2,30.39,West,278,0.0,1.0,74,0.00,,CLR,0.00,VWS V14.01,2013-03-01 12:18:00,
2013-03-01 04:23:00,51.4,44.1,30.39,West,278,0.0,1.0,76,0.00,,CLR,0.00,VWS V14.01,2013-03-01 12:23:00,
2013-03-01 04:28:00,50.7,43.8,30.39,West,278,0.0,1.0,77,0.00,,CLR,0.00,VWS V14.01,2013-03-01 12:28:00,
2013-03-01 04:33:00,50.4,43.8,30.39,West,278,0.0,0.0,78,0.00,,CLR,0.00,VWS V14.01,2013-03-01 12:33:00,
2013-03-01 04:38:00,50.6,43.7,30.39,West,278,0.0,0.0,77,0.00,,CLR,0.00,VWS V14.01,2013-03-01 12:38:00,
2013-03-01 04:43:00,50.3,43.4,30.40,West,278,0.0,0.0,77,0.00,,CLR,0.00,VWS V14.01,2013-03-01 12:43:00,
2013-03-01 04:48:00,49.7,43.5,30.40,West,278,0.0,0.0,79,0.00,,CLR,0.00,VWS V14.01,2013-03-01 12:48:00,
2013-03-01 04:53:00,50.2,44.0,30.40,West,278,0.0,0.0,79,0.00,,CLR,0.00,VWS V14.01,2013-03-01 12:53:00,
2013-03-01 04:58:00,50.3,43.7,30.40,North,11,0.0,1.0,78,0.00,,CLR,0.00,VWS V14.01,2013-03-01 12:58:00,
2013-03-01 05:03:00,49.5,43.3,30.40,NNE,15,0.0,1.0,79,0.00,,CLR,0.00,VWS V14.01,2013-03-01 13:03:00,
2013-03-01 05:08:00,48.9,43.0,30.40,NNE,16,0.0,1.0,80,0.00,,CLR,0.00,VWS V14.01,2013-03-01 13:08:00,
2013-03-01 05:13:00,48.4,42.8,30.40,NNE,15,0.0,1.0,81,0.00,,CLR,0.00,VWS V14.01,2013-03-01 13:13:00,
2013-03-01 05:18:00,48.4,43.2,30.40,North,1,0.0,1.0,82,0.00,,CLR,0.00,VWS V14.01,2013-03-01 13:18:00,
2013-03-01 05:23:00,48.1,42.9,30.40,North,1,0.0,1.0,82,0.00,,CLR,0.00,VWS V14.01,2013-03-01 13:23:00,
2013-03-01 05:28:00,47.7,42.5,30.39,North,1,0.0,1.0,82,0.00,,CLR,0.00,VWS V14.01,2013-03-01 13:28:00,
2013-03-01 05:33:00,47.3,43.0,30.39,North,1,0.0,0.0,85,0.00,,CLR,0.00,VWS V14.01,2013-03-01 13:33:00,
2013-03-01 05:38:00,47.1,42.8,30.39,North,1,0.0,0.0,85,0.00,,CLR,0.00,VWS V14.01,2013-03-01 13:38:00,
2013-03-01 05:43:00,47.1,43.1,30.39,North,1,0.0,0.0,86,0.00,,CLR,0.00,VWS V14.01,2013-03-01 13:43:00,
2013-03-01 05:49:00,47.4,42.8,30.40,North,1,0.0,0.0,84,0.00,,CLR,0.00,VWS V14.01,2013-03-01 13:49:00,
2013-03-01 05:54:00,47.3,43.0,30.40,North,1,0.0,0.0,85,0.00,,CLR,0.00,VWS V14.01,2013-03-01 13:54:00,
2013-03-01 05:59:00,47.6,43.3,30.39,North,1,0.0,0.0,85,0.00,,CLR,0.00,VWS V14.01,2013-03-01 13:59:00,
2013-03-01 06:04:00,48.0,43.4,30.40,North,1,0.0,0.0,84,0.00,,CLR,0.00,VWS V14.01,2013-03-01 14:04:00,
2013-03-01 06:09:00,48.1,43.5,30.39,North,1,0.0,0.0,84,0.00,,CLR,0.00,VWS V14.01,2013-03-01 14:09:00,
2013-03-01 06:14:00,48.1,42.9,30.39,North,1,0.0,0.0,82,0.00,,CLR,0.00,VWS V14.01,2013-03-01 14:14:00,
2013-03-01 06:19:00,47.7,42.8,30.39,North,1,0.0,0.0,83,0.00,,CLR,0.00,VWS V14.01,2013-03-01 14:19:00,
2013-03-01 06:24:00,47.4,42.5,30.39,North,1,0.0,0.0,83,0.00,,CLR,0.00,VWS V14.01,2013-03-01 14:24:00,
2013-03-01 06:29:00,47.3,43.0,30.39,North,1,0.0,0.0,85,0.00,,CLR,0.00,VWS V14.01,2013-03-01 14:29:00,
2013-03-01 06:34:00,47.2,42.9,30.39,North,1,0.0,0.0,85,0.00,,CLR,0.00,VWS V14.01,2013-03-01 14:34:00,
2013-03-01 06:39:00,46.8,42.8,30.39,North,1,0.0,0.0,86,0.00,,CLR,0.00,VWS V14.01,2013-03-01 14:39:00,
2013-03-01 06:44:00,46.6,42.6,30.39,North,1,0.0,0.0,86,0.00,,CLR,0.00,VWS V14.01,2013-03-01 14:44:00,
2013-03-01 06:49:00,46.3,43.0,30.39,North,1,0.0,0.0,88,0.00,,CLR,0.00,VWS V14.01,2013-03-01 14:49:00,
2013-03-01 06:54:00,46.2,42.8,30.39,North,1,0.0,0.0,88,0.00,,CLR,0.00,VWS V14.01,2013-03-01 14:54:00,
2013-03-01 06:59:00,46.5,42.8,30.39,North,1,0.0,1.0,87,0.00,,CLR,0.00,VWS V14.01,2013-03-01 14:59:00,
2013-03-01 07:04:00,46.7,42.4,30.39,North,1,0.0,0.0,85,0.00,,CLR,0.00,VWS V14.01,2013-03-01 15:04:00,
2013-03-01 07:09:00,47.2,42.9,30.39,North,1,0.0,0.0,85,0.00,,CLR,0.00,VWS V14.01,2013-03-01 15:09:00,
2013-03-01 07:14:00,47.8,43.2,30.39,North,1,0.0,0.0,84,0.00,,CLR,0.00,VWS V14.01,2013-03-01 15:14:00,
2013-03-01 07:19:00,48.2,43.3,30.39,North,1,0.0,0.0,83,0.00,,CLR,0.00,VWS V14.01,2013-03-01 15:19:00,
2013-03-01 07:24:00,48.8,44.2,30.39,North,1,0.0,0.0,84,0.00,,CLR,0.00,VWS V14.01,2013-03-01 15:24:00,
2013-03-01 07:29:00,49.9,44.3,30.39,North,1,0.0,0.0,81,0.00,,CLR,0.00,VWS V14.01,2013-03-01 15:29:00,
2013-03-01 07:34:00,50.3,44.4,30.39,North,1,0.0,0.0,80,0.00,,CLR,0.00,VWS V14.01,2013-03-01 15:34:00,
2013-03-01 07:39:00,50.9,44.3,30.40,North,1,0.0,0.0,78,0.00,,CLR,0.00,VWS V14.01,2013-03-01 15:39:00,
2013-03-01 07:44:00,51.4,44.8,30.40,North,1,0.0,0.0,78,0.00,,CLR,0.00,VWS V14.01,2013-03-01 15:44:00,
2013-03-01 07:49:00,51.7,45.1,30.40,North,1,0.0,1.0,78,0.00,,CLR,0.00,VWS V14.01,2013-03-01 15:49:00,
2013-03-01 07:54:00,51.6,45.0,30.40,North,1,0.0,1.0,78,0.00,,CLR,0.00,VWS V14.01,2013-03-01 15:54:00,
2013-03-01 07:59:00,51.6,45.3,30.40,North,1,0.0,1.0,79,0.00,,CLR,0.00,VWS V14.01,2013-03-01 15:59:00,
2013-03-01 08:04:00,52.5,45.8,30.40,North,1,0.0,0.0,78,0.00,,CLR,0.00,VWS V14.01,2013-03-01 16:04:00,
2013-03-01 08:09:00,53.7,46.0,30.40,West,266,0.0,0.0,75,0.00,,CLR,0.00,VWS V14.01,2013-03-01 16:09:00,
2013-03-01 08:14:00,54.7,46.2,30.40,North,1,0.0,0.0,73,0.00,,CLR,0.00,VWS V14.01,2013-03-01 16:14:00,
2013-03-01 08:19:00,54.9,46.1,30.40,North,8,0.0,0.0,72,0.00,,CLR,0.00,VWS V14.01,2013-03-01 16:19:00,
2013-03-01 08:24:00,54.9,46.1,30.40,NNE,13,0.0,1.0,72,0.00,,CLR,0.00,VWS V14.01,2013-03-01 16:24:00,
2013-03-01 08:29:00,55.2,46.3,30.40,NNE,13,0.0,2.0,72,0.00,,CLR,0.00,VWS V14.01,2013-03-01 16:29:00,
2013-03-01 08:34:00,55.7,47.2,30.40,NNE,15,0.0,1.0,73,0.00,,CLR,0.00,VWS V14.01,2013-03-01 16:34:00,
2013-03-01 08:40:00,55.8,47.3,30.40,NE,35,2.0,3.0,73,0.00,,CLR,0.00,VWS V14.01,2013-03-01 16:40:00,
2013-03-01 08:45:00,55.8,47.3,30.39,NNE,20,1.0,3.0,73,0.00,,CLR,0.00,VWS V14.01,2013-03-01 16:45:00,
2013-03-01 08:50:00,56.3,47.4,30.39,NNE,20,2.0,3.0,72,0.00,,CLR,0.00,VWS V14.01,2013-03-01 16:50:00,
2013-03-01 08:55:00,56.8,47.9,30.39,NNE,20,2.0,5.0,72,0.00,,CLR,0.00,VWS V14.01,2013-03-01 16:55:00,
2013-03-01 09:00:00,57.4,48.1,30.39,ENE,66,1.0,5.0,71,0.00,,CLR,0.00,VWS V14.01,2013-03-01 17:00:00,
2013-03-01 09:05:00,58.0,48.3,30.39,NNE,32,3.0,5.0,70,0.00,,CLR,0.00,VWS V14.01,2013-03-01 17:05:00,
2013-03-01 09:10:00,58.6,48.9,30.39,North,11,2.0,6.0,70,0.00,,CLR,0.00,VWS V14.01,2013-03-01 17:10:00,
2013-03-01 09:15:00,59.2,48.7,30.39,NE,42,3.0,6.0,68,0.00,,CLR,0.00,VWS V14.01,2013-03-01 17:15:00,
2013-03-01 09:20:00,59.6,48.2,30.38,NW,325,1.0,6.0,66,0.00,,CLR,0.00,VWS V14.01,2013-03-01 17:20:00,
2013-03-01 09:25:00,60.3,48.1,30.38,NNW,327,2.0,6.0,64,0.00,,CLR,0.00,VWS V14.01,2013-03-01 17:25:00,
2013-03-01 09:30:00,60.8,48.1,30.38,NE,41,3.0,6.0,63,0.00,,CLR,0.00,VWS V14.01,2013-03-01 17:30:00,
2013-03-01 09:35:00,61.1,48.0,30.38,NNE,24,4.0,7.0,62,0.00,,CLR,0.00,VWS V14.01,2013-03-01 17:35:00,
2013-03-01 09:40:00,61.5,47.5,30.38,NNE,29,6.0,7.0,60,0.00,,CLR,0.00,VWS V14.01,2013-03-01 17:40:00,
2013-03-01 09:45:00,61.6,47.2,30.38,NE,43,2.0,11.0,59,0.00,,CLR,0.00,VWS V14.01,2013-03-01 17:45:00,
2013-03-01 09:50:00,62.0,47.5,30.38,NNW,336,1.0,11.0,59,0.00,,CLR,0.00,VWS V14.01,2013-03-01 17:50:00,
2013-03-01 09:55:00,62.2,47.7,30.38,North,5,3.0,11.0,59,0.00,,CLR,0.00,VWS V14.01,2013-03-01 17:55:00,
2013-03-01 10:00:00,62.6,47.2,30.38,NNW,332,5.0,11.0,57,0.00,,CLR,0.00,VWS V14.01,2013-03-01 18:00:00,
2013-03-01 10:05:00,63.0,47.5,30.38,West,267,4.0,5.0,57,0.00,,CLR,0.00,VWS V14.01,2013-03-01 18:05:00,
2013-03-01 10:10:00,63.3,47.8,30.37,NNE,27,8.0,8.0,57,0.00,,CLR,0.00,VWS V14.01,2013-03-01 18:10:00,
2013-03-01 10:15:00,63.6,47.6,30.37,NNW,341,4.0,8.0,56,0.00,,CLR,0.00,VWS V14.01,2013-03-01 18:15:00,
2013-03-01 10:20:00,64.1,48.1,30.37,NNE,31,4.0,8.0,56,0.00,,CLR,0.00,VWS V14.01,2013-03-01 18:20:00,
2013-03-01 10:25:00,64.7,48.7,30.37,NNW,346,3.0,8.0,56,0.00,,CLR,0.00,VWS V14.01,2013-03-01 18:25:00,
2013-03-01 10:30:00,65.1,48.5,30.37,WSW,257,1.0,8.0,55,0.00,,CLR,0.00,VWS V14.01,2013-03-01 18:30:00,
2013-03-01 10:35:00,65.1,48.5,30.37,North,10,0.0,7.0,55,0.00,,CLR,0.00,VWS V14.01,2013-03-01 18:35:00,
2013-03-01 10:40:00,65.6,48.0,30.37,NNW,328,6.0,7.0,53,0.00,,CLR,0.00,VWS V14.01,2013-03-01 18:40:00,
2013-03-01 10:45:00,65.2,48.2,30.36,NW,319,2.0,10.0,54,0.00,,CLR,0.00,VWS V14.01,2013-03-01 18:45:00,
2013-03-01 10:50:00,65.8,48.7,30.36,NNE,20,4.0,10.0,54,0.00,,CLR,0.00,VWS V14.01,2013-03-01 18:50:00,
2013-03-01 10:55:00,65.8,48.7,30.36,North,11,2.0,10.0,54,0.00,,CLR,0.00,VWS V14.01,2013-03-01 18:55:00,
2013-03-01 11:00:00,66.3,48.2,30.36,North,11,4.0,10.0,52,0.00,,CLR,0.00,VWS V14.01,2013-03-01 19:00:00,
2013-03-01 11:05:00,66.5,48.3,30.36,NNE,22,4.0,8.0,52,0.00,,CLR,0.00,VWS V14.01,2013-03-01 19:05:00,
2013-03-01 11:10:00,66.4,48.3,30.36,NNE,17,3.0,10.0,52,0.00,,CLR,0.00,VWS V14.01,2013-03-01 19:10:00,
2013-03-01 11:15:00,66.7,48.5,30.36,North,352,5.0,10.0,52,0.00,,CLR,0.00,VWS V14.01,2013-03-01 19:15:00,
2013-03-01 11:20:00,67.3,48.6,30.35,NNE,18,1.0,10.0,51,0.00,,CLR,0.00,VWS V14.01,2013-03-01 19:20:00,
2013-03-01 11:25:00,67.5,48.8,30.35,WNW,287,3.0,10.0,51,0.00,,CLR,0.00,VWS V14.01,2013-03-01 19:25:00,
2013-03-01 11:30:00,67.9,48.6,30.35,NE,46,3.0,10.0,50,0.00,,CLR,0.00,VWS V14.01,2013-03-01 19:30:00,
2013-03-01 11:35:00,68.4,49.1,30.35,NNE,18,4.0,6.0,50,0.00,,CLR,0.00,VWS V14.01,2013-03-01 19:35:00,
2013-03-01 11:40:00,68.7,49.3,30.35,NNE,29,5.0,8.0,50,0.00,,CLR,0.00,VWS V14.01,2013-03-01 19:40:00,
2013-03-01 11:45:00,69.0,48.0,30.35,NE,39,5.0,8.0,47,0.00,,CLR,0.00,VWS V14.01,2013-03-01 19:45:00,
2013-03-01 11:50:00,69.1,48.0,30.35,NE,42,4.0,9.0,47,0.00,,CLR,0.00,VWS V14.01,2013-03-01 19:50:00,
2013-03-01 11:55:00,69.5,47.8,30.34,NNE,12,2.0,9.0,46,0.00,,CLR,0.00,VWS V14.01,2013-03-01 19:55:00,
2013-03-01 12:00:00,69.9,48.2,30.34,NE,39,3.0,9.0,46,0.00,,CLR,0.00,VWS V14.01,2013-03-01 20:00:00,
2013-03-01 12:05:00,70.3,48.0,30.33,NE,47,3.0,8.0,45,0.00,,CLR,0.00,VWS V14.01,2013-03-01 20:05:00,
2013-03-01 12:10:00,70.5,47.6,30.33,NNE,25,3.0,8.0,44,0.00,,CLR,0.00,VWS V14.01,2013-03-01 20:10:00,
2013-03-01 12:15:00,70.8,47.8,30.33,North,4,3.0,8.0,44,0.00,,CLR,0.00,VWS V14.01,2013-03-01 20:15:00,
2013-03-01 12:20:00,70.9,47.9,30.33,ENE,64,2.0,8.0,44,0.00,,CLR,0.00,VWS V14.01,2013-03-01 20:20:00,
2013-03-01 12:25:00,71.3,48.3,30.33,NNE,15,3.0,8.0,44,0.00,,CLR,0.00,VWS V14.01,2013-03-01 20:25:00,
2013-03-01 12:30:00,71.3,47.7,30.33,NE,56,6.0,9.0,43,0.00,,CLR,0.00,VWS V14.01,2013-03-01 20:30:00,
2013-03-01 12:35:00,71.7,48.0,30.32,NNE,24,5.0,6.0,43,0.00,,CLR,0.00,VWS V14.01,2013-03-01 20:35:00,
2013-03-01 12:40:00,71.5,47.8,30.32,NE,42,0.0,8.0,43,0.00,,CLR,0.00,VWS V14.01,2013-03-01 20:40:00,
2013-03-01 12:46:00,71.9,48.2,30.31,NE,42,3.0,8.0,43,0.00,,CLR,0.00,VWS V14.01,2013-03-01 20:46:00,
2013-03-01 12:51:00,71.9,47.6,30.31,NNE,23,4.0,8.0,42,0.00,,CLR,0.00,VWS V14.01,2013-03-01 20:51:00,
2013-03-01 12:56:00,72.3,46.7,30.31,ENE,61,3.0,8.0,40,0.00,,CLR,0.00,VWS V14.01,2013-03-01 20:56:00,
2013-03-01 13:01:00,72.5,47.5,30.30,ENE,58,1.0,8.0,41,0.00,,CLR,0.00,VWS V14.01,2013-03-01 21:01:00,
2013-03-01 13:06:00,72.6,48.8,30.30,East,94,1.0,7.0,43,0.00,,CLR,0.00,VWS V14.01,2013-03-01 21:06:00,
2013-03-01 13:11:00,73.3,46.9,30.30,NNE,22,4.0,7.0,39,0.00,,CLR,0.00,VWS V14.01,2013-03-01 21:11:00,
2013-03-01 13:16:00,72.6,47.6,30.30,WNW,291,1.0,7.0,41,0.00,,CLR,0.00,VWS V14.01,2013-03-01 21:16:00,
2013-03-01 13:21:00,72.7,47.0,30.29,West,273,1.0,7.0,40,0.00,,CLR,0.00,VWS V14.01,2013-03-01 21:21:00,
2013-03-01 13:26:00,73.5,47.7,30.29,NNE,20,4.0,7.0,40,0.00,,CLR,0.00,VWS V14.01,2013-03-01 21:26:00,
2013-03-01 13:31:00,73.7,47.2,30.29,NNE,15,0.0,0.0,39,0.00,,CLR,0.00,VWS V14.01,2013-03-01 21:31:00,
2013-03-01 13:36:00,74.0,48.8,30.28,NE,54,2.0,5.0,41,0.00,,CLR,0.00,VWS V14.01,2013-03-01 21:36:00,
2013-03-01 13:41:00,74.2,47.7,30.28,North,8,0.0,5.0,39,0.00,,CLR,0.00,VWS V14.01,2013-03-01 21:41:00,
2013-03-01 13:46:00,74.6,46.6,30.28,NE,49,1.0,5.0,37,0.00,,CLR,0.00,VWS V14.01,2013-03-01 21:46:00,
2013-03-01 13:51:00,74.4,48.5,30.28,ESE,105,1.0,5.0,40,0.00,,CLR,0.00,VWS V14.01,2013-03-01 21:51:00,
2013-03-01 13:56:00,74.8,47.5,30.27,ESE,117,1.0,6.0,38,0.00,,CLR,0.00,VWS V14.01,2013-03-01 21:56:00,
2013-03-01 14:01:00,74.8,47.5,30.27,NNE,25,6.0,6.0,38,0.00,,CLR,0.00,VWS V14.01,2013-03-01 22:01:00,
2013-03-01 14:06:00,74.1,46.2,30.27,NE,40,4.0,6.0,37,0.00,,CLR,0.00,VWS V14.01,2013-03-01 22:06:00,
2013-03-01 14:11:00,73.9,47.4,30.26,NNE,33,0.0,6.0,39,0.00,,CLR,0.00,VWS V14.01,2013-03-01 22:11:00,
2013-03-01 14:16:00,74.2,46.3,30.26,NNE,27,5.0,8.0,37,0.00,,CLR,0.00,VWS V14.01,2013-03-01 22:16:00,
2013-03-01 14:21:00,74.2,46.3,30.26,NNW,334,0.0,8.0,37,0.00,,CLR,0.00,VWS V14.01,2013-03-01 22:21:00,
2013-03-01 14:26:00,74.5,45.8,30.26,North,4,0.0,8.0,36,0.00,,CLR,0.00,VWS V14.01,2013-03-01 22:26:00,
2013-03-01 14:31:00,75.0,45.5,30.26,NE,39,3.0,4.0,35,0.00,,CLR,0.00,VWS V14.01,2013-03-01 22:31:00,
2013-03-01 14:36:00,74.5,45.8,30.26,NNE,23,3.0,6.0,36,0.00,,CLR,0.00,VWS V14.01,2013-03-01 22:36:00,
2013-03-01 14:41:00,74.6,45.9,30.25,ENE,63,1.0,6.0,36,0.00,,CLR,0.00,VWS V14.01,2013-03-01 22:41:00,
2013-03-01 14:46:00,75.0,44.8,30.25,NNE,26,0.0,6.0,34,0.00,,CLR,0.00,VWS V14.01,2013-03-01 22:46:00,
2013-03-01 14:51:00,75.0,46.3,30.25,ESE,103,0.0,6.0,36,0.00,,CLR,0.00,VWS V14.01,2013-03-01 22:51:00,
2013-03-01 14:56:00,75.3,45.0,30.25,NW,316,1.0,6.0,34,0.00,,CLR,0.00,VWS V14.01,2013-03-01 22:56:00,
2013-03-01 15:01:00,75.0,44.8,30.26,NW,326,0.0,0.0,34,0.00,,CLR,0.00,VWS V14.01,2013-03-01 23:01:00,
2013-03-01 15:06:00,75.3,45.8,30.25,NNE,22,1.0,3.0,35,0.00,,CLR,0.00,VWS V14.01,2013-03-01 23:06:00,
2013-03-01 15:11:00,75.3,47.3,30.25,NNE,21,2.0,6.0,37,0.00,,CLR,0.00,VWS V14.01,2013-03-01 23:11:00,
2013-03-01 15:16:00,75.7,45.4,30.25,NNE,21,2.0,6.0,34,0.00,,CLR,0.00,VWS V14.01,2013-03-01 23:16:00,
2013-03-01 15:21:00,75.2,46.4,30.25,ENE,77,0.0,6.0,36,0.00,,CLR,0.00,VWS V14.01,2013-03-01 23:21:00,
2013-03-01 15:26:00,75.6,46.0,30.25,ENE,71,0.0,6.0,35,0.00,,CLR,0.00,VWS V14.01,2013-03-01 23:26:00,
2013-03-01 15:31:00,75.6,45.3,30.25,East,94,0.0,0.0,34,0.00,,CLR,0.00,VWS V14.01,2013-03-01 23:31:00,
2013-03-01 15:36:00,75.5,46.7,30.25,NE,51,0.0,6.0,36,0.00,,CLR,0.00,VWS V14.01,2013-03-01 23:36:00,
2013-03-01 15:41:00,75.2,44.9,30.25,NE,44,0.0,6.0,34,0.00,,CLR,0.00,VWS V14.01,2013-03-01 23:41:00,
2013-03-01 15:46:00,75.2,45.7,30.25,SSE,148,1.0,6.0,35,0.00,,CLR,0.00,VWS V14.01,2013-03-01 23:46:00,
2013-03-01 15:51:00,75.0,46.3,30.25,SE,129,0.0,6.0,36,0.00,,CLR,0.00,VWS V14.01,2013-03-01 23:51:00,
2013-03-01 15:56:00,75.1,45.6,30.25,SSE,152,1.0,6.0,35,0.00,,CLR,0.00,VWS V14.01,2013-03-01 23:56:00,
2013-03-01 16:01:00,75.2,45.7,30.25,ESE,116,2.0,4.0,35,0.00,,CLR,0.00,VWS V14.01,2013-03-02 00:01:00,
2013-03-01 16:06:00,75.1,45.6,30.24,NE,40,0.0,4.0,35,0.00,,CLR,0.00,VWS V14.01,2013-03-02 00:06:00,
2013-03-01 16:11:00,74.9,45.4,30.24,East,90,0.0,4.0,35,0.00,,CLR,0.00,VWS V14.01,2013-03-02 00:11:00,
2013-03-01 16:17:00,74.8,45.3,30.24,ENE,63,0.0,4.0,35,0.00,,CLR,0.00,VWS V14.01,2013-03-02 00:17:00,
2013-03-01 16:21:00,75.4,45.1,30.24,SSE,149,0.0,4.0,34,0.00,,CLR,0.00,VWS V14.01,2013-03-02 00:21:00,
2013-03-01 16:27:00,75.3,45.8,30.24,SE,145,0.0,4.0,35,0.00,,CLR,0.00,VWS V14.01,2013-03-02 00:27:00,
2013-03-01 16:32:00,75.6,46.0,30.24,SE,131,0.0,0.0,35,0.00,,CLR,0.00,VWS V14.01,2013-03-02 00:32:00,
2013-03-01 16:37:00,75.7,46.1,30.24,SSE,152,0.0,1.0,35,0.00,,CLR,0.00,VWS V14.01,2013-03-02 00:37:00,
2013-03-01 16:42:00,75.2,45.7,30.23,SSE,152,0.0,1.0,35,0.00,,CLR,0.00,VWS V14.01,2013-03-02 00:42:00,
2013-03-01 16:47:00,74.6,45.9,30.23,SE,143,0.0,1.0,36,0.00,,CLR,0.00,VWS V14.01,2013-03-02 00:47:00,
2013-03-01 16:52:00,74.1,46.9,30.23,SE,134,1.0,4.0,38,0.00,,CLR,0.00,VWS V14.01,2013-03-02 00:52:00,
2013-03-01 16:57:00,73.7,47.9,30.23,SE,146,0.0,4.0,40,0.00,,CLR,0.00,VWS V14.01,2013-03-02 00:57:00,
2013-03-01 17:02:00,73.0,47.9,30.23,SSE,153,2.0,2.0,41,0.00,,CLR,0.00,VWS V14.01,2013-03-02 01:02:00,
2013-03-01 17:07:00,72.3,47.3,30.23,East,96,0.0,3.0,41,0.00,,CLR,0.00,VWS V14.01,2013-03-02 01:07:00,
2013-03-01 17:12:00,71.6,47.3,30.23,SE,139,0.0,3.0,42,0.00,,CLR,0.00,VWS V14.01,2013-03-02 01:12:00,
2013-03-01 17:17:00,71.1,47.5,30.23,SSW,194,0.0,3.0,43,0.00,,CLR,0.00,VWS V14.01,2013-03-02 01:17:00,
2013-03-01 17:22:00,70.7,47.7,30.23,SE,125,1.0,3.0,44,0.00,,CLR,0.00,VWS V14.01,2013-03-02 01:22:00,
2013-03-01 17:27:00,70.2,47.9,30.23,SSE,159,1.0,3.0,45,0.00,,CLR,0.00,VWS V14.01,2013-03-02 01:27:00,
2013-03-01 17:32:00,69.7,48.0,30.24,SSE,164,1.0,2.0,46,0.00,,CLR,0.00,VWS V14.01,2013-03-02 01:32:00,
2013-03-01 17:37:00,69.3,48.2,30.23,SSE,162,0.0,3.0,47,0.00,,CLR,0.00,VWS V14.01,2013-03-02 01:37:00,
2013-03-01 17:42:00,68.8,47.8,30.23,SSE,149,0.0,3.0,47,0.00,,CLR,0.00,VWS V14.01,2013-03-02 01:42:00,
2013-03-01 17:47:00,68.3,47.9,30.23,SE,143,0.0,3.0,48,0.00,,CLR,0.00,VWS V14.01,2013-03-02 01:47:00,
2013-03-01 17:52:00,67.9,48.1,30.23,SSE,150,1.0,3.0,49,0.00,,CLR,0.00,VWS V14.01,2013-03-02 01:52:00,
2013-03-01 17:57:00,67.5,47.7,30.23,SE,143,0.0,3.0,49,0.00,,CLR,0.00,VWS V14.01,2013-03-02 01:57:00,
2013-03-01 18:02:00,67.2,48.0,30.23,South,169,0.0,0.0,50,0.00,,CLR,0.00,VWS V14.01,2013-03-02 02:02:00,
2013-03-01 18:07:00,66.8,47.6,30.23,South,169,0.0,0.0,50,0.00,,CLR,0.00,VWS V14.01,2013-03-02 02:07:00,
2013-03-01 18:12:00,66.5,47.3,30.23,South,169,0.0,0.0,50,0.00,,CLR,0.00,VWS V14.01,2013-03-02 02:12:00,
2013-03-01 18:17:00,66.2,47.6,30.23,South,169,0.0,0.0,51,0.00,,CLR,0.00,VWS V14.01,2013-03-02 02:17:00,
2013-03-01 18:22:00,65.6,47.5,30.23,South,169,0.0,0.0,52,0.00,,CLR,0.00,VWS V14.01,2013-03-02 02:22:00,
2013-03-01 18:27:00,65.3,47.8,30.23,South,169,0.0,0.0,53,0.00,,CLR,0.00,VWS V14.01,2013-03-02 02:27:00,
2013-03-01 18:32:00,64.9,47.9,30.23,South,169,0.0,0.0,54,0.00,,CLR,0.00,VWS V14.01,2013-03-02 02:32:00,
2013-03-01 18:37:00,64.6,48.1,30.23,South,169,0.0,0.0,55,0.00,,CLR,0.00,VWS V14.01,2013-03-02 02:37:00,
2013-03-01 18:42:00,64.2,48.2,30.23,South,169,0.0,0.0,56,0.00,,CLR,0.00,VWS V14.01,2013-03-02 02:42:00,
2013-03-01 18:47:00,64.1,48.1,30.23,WSW,255,0.0,1.0,56,0.00,,CLR,0.00,VWS V14.01,2013-03-02 02:47:00,
2013-03-01 18:52:00,63.8,47.8,30.23,WSW,253,0.0,1.0,56,0.00,,CLR,0.00,VWS V14.01,2013-03-02 02:52:00,
2013-03-01 18:57:00,63.5,48.0,30.23,WSW,250,0.0,1.0,57,0.00,,CLR,0.00,VWS V14.01,2013-03-02 02:57:00,
2013-03-01 19:02:00,63.2,48.2,30.24,WSW,250,0.0,0.0,58,0.00,,CLR,0.00,VWS V14.01,2013-03-02 03:02:00,
2013-03-01 19:07:00,63.1,48.1,30.24,WSW,250,0.0,1.0,58,0.00,,CLR,0.00,VWS V14.01,2013-03-02 03:07:00,
2013-03-01 19:12:00,63.0,48.0,30.24,WSW,257,0.0,1.0,58,0.00,,CLR,0.00,VWS V14.01,2013-03-02 03:12:00,
2013-03-01 19:17:00,63.0,48.0,30.23,West,265,0.0,1.0,58,0.00,,CLR,0.00,VWS V14.01,2013-03-02 03:17:00,
2013-03-01 19:22:00,62.7,48.2,30.24,West,264,0.0,1.0,59,0.00,,CLR,0.00,VWS V14.01,2013-03-02 03:22:00,
2013-03-01 19:27:00,62.4,47.9,30.24,West,264,0.0,1.0,59,0.00,,CLR,0.00,VWS V14.01,2013-03-02 03:27:00,
2013-03-01 19:32:00,62.0,48.0,30.24,West,266,0.0,0.0,60,0.00,,CLR,0.00,VWS V14.01,2013-03-02 03:32:00,
2013-03-01 19:37:00,61.8,48.2,30.24,West,275,0.0,1.0,61,0.00,,CLR,0.00,VWS V14.01,2013-03-02 03:37:00,
2013-03-01 19:42:00,61.6,48.0,30.24,WSW,253,0.0,1.0,61,0.00,,CLR,0.00,VWS V14.01,2013-03-02 03:42:00,
2013-03-01 19:47:00,61.6,48.0,30.24,West,278,0.0,1.0,61,0.00,,CLR,0.00,VWS V14.01,2013-03-02 03:47:00,
2013-03-01 19:52:00,61.3,47.8,30.24,West,279,0.0,1.0,61,0.00,,CLR,0.00,VWS V14.01,2013-03-02 03:52:00,
2013-03-01 19:57:00,61.3,48.2,30.24,West,278,0.0,1.0,62,0.00,,CLR,0.00,VWS V14.01,2013-03-02 03:57:00,
2013-03-01 20:02:00,61.3,48.2,30.25,West,278,0.0,0.0,62,0.00,,CLR,0.00,VWS V14.01,2013-03-02 04:02:00,
2013-03-01 20:07:00,61.1,48.0,30.25,West,278,0.0,1.0,62,0.00,,CLR,0.00,VWS V14.01,2013-03-02 04:07:00,
2013-03-01 20:12:00,60.9,47.8,30.25,SW,224,0.0,1.0,62,0.00,,CLR,0.00,VWS V14.01,2013-03-02 04:12:00,
2013-03-01 20:17:00,60.8,48.1,30.25,SSW,210,0.0,1.0,63,0.00,,CLR,0.00,VWS V14.01,2013-03-02 04:17:00,
2013-03-01 20:22:00,60.6,48.0,30.25,West,278,0.0,1.0,63,0.00,,CLR,0.00,VWS V14.01,2013-03-02 04:22:00,
2013-03-01 20:27:00,60.4,47.8,30.25,West,278,0.0,1.0,63,0.00,,CLR,0.00,VWS V14.01,2013-03-02 04:27:00,
2013-03-01 20:32:00,60.1,47.9,30.25,West,278,0.0,0.0,64,0.00,,CLR,0.00,VWS V14.01,2013-03-02 04:32:00,
2013-03-01 20:37:00,60.1,47.9,30.25,West,278,0.0,1.0,64,0.00,,CLR,0.00,VWS V14.01,2013-03-02 04:37:00,
2013-03-01 20:42:00,60.2,48.0,30.25,West,267,0.0,1.0,64,0.00,,CLR,0.00,VWS V14.01,2013-03-02 04:42:00,
2013-03-01 20:47:00,60.2,48.0,30.25,WNW,295,0.0,1.0,64,0.00,,CLR,0.00,VWS V14.01,2013-03-02 04:47:00,
2013-03-01 20:52:00,60.0,47.8,30.25,WNW,295,0.0,1.0,64,0.00,,CLR,0.00,VWS V14.01,2013-03-02 04:52:00,
2013-03-01 20:58:00,59.9,48.1,30.25,WNW,290,0.0,1.0,65,0.00,,CLR,0.00,VWS V14.01,2013-03-02 04:58:00,
2013-03-01 21:00:00,60.0,47.8,30.25,WNW,289,0.0,1.0,64,0.00,,CLR,0.00,VWS V14.01,2013-03-02 05:00:00,
2013-03-01 21:05:00,59.7,47.9,30.25,WNW,290,0.0,0.0,65,0.00,,CLR,0.00,VWS V14.01,2013-03-02 05:05:00,
2013-03-01 21:10:00,59.1,47.8,30.25,WNW,290,0.0,0.0,66,0.00,,CLR,0.00,VWS V14.01,2013-03-02 05:10:00,
2013-03-01 21:16:00,58.6,47.7,30.25,WNW,290,0.0,0.0,67,0.00,,CLR,0.00,VWS V14.01,2013-03-02 05:16:00,
2013-03-01 21:21:00,58.1,47.2,30.25,WNW,290,0.0,0.0,67,0.00,,CLR,0.00,VWS V14.01,2013-03-02 05:21:00,
2013-03-01 21:26:00,57.4,47.3,30.24,WNW,290,0.0,0.0,69,0.00,,CLR,0.00,VWS V14.01,2013-03-02 05:26:00,
2013-03-01 21:31:00,56.8,47.5,30.25,WNW,290,0.0,0.0,71,0.00,,CLR,0.00,VWS V14.01,2013-03-02 05:31:00,
2013-03-01 21:36:00,56.7,47.8,30.25,WNW,290,0.0,0.0,72,0.00,,CLR,0.00,VWS V14.01,2013-03-02 05:36:00,
2013-03-01 21:41:00,56.3,47.0,30.25,WNW,289,0.0,0.0,71,0.00,,CLR,0.00,VWS V14.01,2013-03-02 05:41:00,
2013-03-01 21:46:00,55.8,46.9,30.24,WNW,290,0.0,0.0,72,0.00,,CLR,0.00,VWS V14.01,2013-03-02 05:46:00,
2013-03-01 21:51:00,55.4,46.9,30.24,WNW,289,0.0,0.0,73,0.00,,CLR,0.00,VWS V14.01,2013-03-02 05:51:00,
2013-03-01 21:56:00,54.9,46.8,30.24,North,357,0.0,1.0,74,0.00,,CLR,0.00,VWS V14.01,2013-03-02 05:56:00,
2013-03-01 22:01:00,54.5,46.8,30.24,North,356,0.0,1.0,75,0.00,,CLR,0.00,VWS V14.01,2013-03-02 06:01:00,
2013-03-01 22:06:00,54.2,46.8,30.24,North,357,0.0,0.0,76,0.00,,CLR,0.00,VWS V14.01,2013-03-02 06:06:00,
2013-03-01 22:11:00,54.1,46.7,30.24,North,357,0.0,0.0,76,0.00,,CLR,0.00,VWS V14.01,2013-03-02 06:11:00,
2013-03-01 22:16:00,54.1,46.7,30.24,North,356,0.0,0.0,76,0.00,,CLR,0.00,VWS V14.01,2013-03-02 06:16:00,
2013-03-01 22:21:00,53.9,46.9,30.24,North,356,0.0,0.0,77,0.00,,CLR,0.00,VWS V14.01,2013-03-02 06:21:00,
2013-03-01 22:26:00,53.6,46.6,30.24,North,357,0.0,0.0,77,0.00,,CLR,0.00,VWS V14.01,2013-03-02 06:26:00,
2013-03-01 22:31:00,53.7,47.0,30.24,North,354,0.0,0.0,78,0.00,,CLR,0.00,VWS V14.01,2013-03-02 06:31:00,
2013-03-01 22:36:00,54.0,47.0,30.24,NNW,340,0.0,1.0,77,0.00,,CLR,0.00,VWS V14.01,2013-03-02 06:36:00,
2013-03-01 22:41:00,54.6,47.2,30.24,NNW,340,0.0,1.0,76,0.00,,CLR,0.00,VWS V14.01,2013-03-02 06:41:00,
2013-03-01 22:46:00,54.8,47.4,30.24,NNW,340,0.0,1.0,76,0.00,,CLR,0.00,VWS V14.01,2013-03-02 06:46:00,
2013-03-01 22:51:00,54.7,46.9,30.24,NNW,340,0.0,1.0,75,0.00,,CLR,0.00,VWS V14.01,2013-03-02 06:51:00,
2013-03-01 22:56:00,55.1,47.3,30.24,NNW,340,0.0,1.0,75,0.00,,CLR,0.00,VWS V14.01,2013-03-02 06:56:00,
2013-03-01 23:01:00,55.0,47.2,30.24,NNW,340,0.0,0.0,75,0.00,,CLR,0.00,VWS V14.01,2013-03-02 07:01:00,
2013-03-01 23:06:00,54.8,47.0,30.24,NNW,340,0.0,0.0,75,0.00,,CLR,0.00,VWS V14.01,2013-03-02 07:06:00,
2013-03-01 23:11:00,54.5,47.1,30.24,NNW,340,0.0,0.0,76,0.00,,CLR,0.00,VWS V14.01,2013-03-02 07:11:00,
2013-03-01 23:16:00,54.8,47.0,30.23,NNW,340,0.0,0.0,75,0.00,,CLR,0.00,VWS V14.01,2013-03-02 07:16:00,
2013-03-01 23:21:00,54.5,46.8,30.24,NNW,340,0.0,0.0,75,0.00,,CLR,0.00,VWS V14.01,2013-03-02 07:21:00,
2013-03-01 23:26:00,53.9,46.5,30.23,NNW,340,0.0,0.0,76,0.00,,CLR,0.00,VWS V14.01,2013-03-02 07:26:00,
2013-03-01 23:31:00,53.5,46.5,30.24,NNW,340,0.0,0.0,77,0.00,,CLR,0.00,VWS V14.01,2013-03-02 07:31:00,
2013-03-01 23:36:00,53.4,46.4,30.23,NNW,340,0.0,0.0,77,0.00,,CLR,0.00,VWS V14.01,2013-03-02 07:36:00,
2013-03-01 23:41:00,53.3,46.3,30.23,NNW,340,0.0,0.0,77,0.00,,CLR,0.00,VWS V14.01,2013-03-02 07:41:00,
2013-03-01 23:46:00,53.3,46.6,30.23,NNW,340,0.0,0.0,78,0.00,,CLR,0.00,VWS V14.01,2013-03-02 07:46:00,
2013-03-01 23:51:00,53.3,46.3,30.23,NNW,340,0.0,0.0,77,0.00,,CLR,0.00,VWS V14.01,2013-03-02 07:51:00,
2013-03-01 23:56:00,53.0,46.0,30.23,NNW,340,0.0,0.0,77,0.00,,CLR,0.00,VWS V14.01,2013-03-02 07:56:00,